Cleared energy and offer stacks

From www.emi.ea.govt.nz provided by the Electricity Authority (New Zealand)
Run at: 20240502142550

Parameters
Date,17 Apr 2024
Region type,New Zealand
Region,New Zealand
Band 1 max,50
Band 2 max,80
Band 3 max,130
Band 4 max,300
Band 5 max,1000

Period start,Period end,Trading period,Region ID,Region,Series,Energy (MW)
17/04/2024 00:00:00,17/04/2024 00:30:00,1,NZ,New Zealand,Cleared energy,3849.607
17/04/2024 00:30:00,17/04/2024 01:00:00,2,NZ,New Zealand,Cleared energy,3725.574
17/04/2024 01:00:00,17/04/2024 01:30:00,3,NZ,New Zealand,Cleared energy,3662.936
17/04/2024 01:30:00,17/04/2024 02:00:00,4,NZ,New Zealand,Cleared energy,3611.186
17/04/2024 02:00:00,17/04/2024 02:30:00,5,NZ,New Zealand,Cleared energy,3562.243
17/04/2024 02:30:00,17/04/2024 03:00:00,6,NZ,New Zealand,Cleared energy,3491.714
17/04/2024 03:00:00,17/04/2024 03:30:00,7,NZ,New Zealand,Cleared energy,3479.810
17/04/2024 03:30:00,17/04/2024 04:00:00,8,NZ,New Zealand,Cleared energy,3472.346
17/04/2024 04:00:00,17/04/2024 04:30:00,9,NZ,New Zealand,Cleared energy,3517.960
17/04/2024 04:30:00,17/04/2024 05:00:00,10,NZ,New Zealand,Cleared energy,3628.665
17/04/2024 04:30:00,17/04/2024 05:00:00,10,NZ,New Zealand,1000+ $/MWh,1089.100
17/04/2024 04:30:00,17/04/2024 05:00:00,10,NZ,New Zealand,300-1000 $/MWh,1008.014
17/04/2024 04:30:00,17/04/2024 05:00:00,10,NZ,New Zealand,130-300 $/MWh,1024.500
17/04/2024 04:30:00,17/04/2024 05:00:00,10,NZ,New Zealand,80-130 $/MWh,59.000
17/04/2024 04:30:00,17/04/2024 05:00:00,10,NZ,New Zealand,0-50 $/MWh,4326.401
17/04/2024 05:00:00,17/04/2024 05:30:00,11,NZ,New Zealand,Cleared energy,3834.741
17/04/2024 05:30:00,17/04/2024 06:00:00,12,NZ,New Zealand,Cleared energy,4061.506
17/04/2024 06:00:00,17/04/2024 06:30:00,13,NZ,New Zealand,Cleared energy,4495.822
17/04/2024 06:30:00,17/04/2024 07:00:00,14,NZ,New Zealand,Cleared energy,4878.368
17/04/2024 07:00:00,17/04/2024 07:30:00,15,NZ,New Zealand,Cleared energy,5180.395
17/04/2024 07:30:00,17/04/2024 08:00:00,16,NZ,New Zealand,Cleared energy,5412.637
17/04/2024 08:00:00,17/04/2024 08:30:00,17,NZ,New Zealand,Cleared energy,5468.371
17/04/2024 08:30:00,17/04/2024 09:00:00,18,NZ,New Zealand,Cleared energy,5423.680
17/04/2024 09:00:00,17/04/2024 09:30:00,19,NZ,New Zealand,Cleared energy,5299.373
17/04/2024 09:30:00,17/04/2024 10:00:00,20,NZ,New Zealand,Cleared energy,5190.311
17/04/2024 10:00:00,17/04/2024 10:30:00,21,NZ,New Zealand,Cleared energy,5172.559
17/04/2024 10:30:00,17/04/2024 11:00:00,22,NZ,New Zealand,Cleared energy,5115.019
17/04/2024 11:00:00,17/04/2024 11:30:00,23,NZ,New Zealand,Cleared energy,5087.148
17/04/2024 11:30:00,17/04/2024 12:00:00,24,NZ,New Zealand,Cleared energy,5058.517
17/04/2024 12:00:00,17/04/2024 12:30:00,25,NZ,New Zealand,Cleared energy,5038.293
17/04/2024 12:30:00,17/04/2024 13:00:00,26,NZ,New Zealand,Cleared energy,4979.156
17/04/2024 13:00:00,17/04/2024 13:30:00,27,NZ,New Zealand,Cleared energy,4945.317
17/04/2024 13:30:00,17/04/2024 14:00:00,28,NZ,New Zealand,Cleared energy,4889.636
17/04/2024 14:00:00,17/04/2024 14:30:00,29,NZ,New Zealand,Cleared energy,4928.548
17/04/2024 14:30:00,17/04/2024 15:00:00,30,NZ,New Zealand,Cleared energy,4901.949
17/04/2024 15:00:00,17/04/2024 15:30:00,31,NZ,New Zealand,Cleared energy,4962.293
17/04/2024 15:30:00,17/04/2024 16:00:00,32,NZ,New Zealand,Cleared energy,4993.610
17/04/2024 16:00:00,17/04/2024 16:30:00,33,NZ,New Zealand,Cleared energy,5017.994
17/04/2024 16:30:00,17/04/2024 17:00:00,34,NZ,New Zealand,Cleared energy,5106.297
17/04/2024 17:00:00,17/04/2024 17:30:00,35,NZ,New Zealand,Cleared energy,5221.257
17/04/2024 17:30:00,17/04/2024 18:00:00,36,NZ,New Zealand,Cleared energy,5433.594
17/04/2024 18:00:00,17/04/2024 18:30:00,37,NZ,New Zealand,Cleared energy,5604.158
17/04/2024 18:30:00,17/04/2024 19:00:00,38,NZ,New Zealand,Cleared energy,5578.190
17/04/2024 19:00:00,17/04/2024 19:30:00,39,NZ,New Zealand,Cleared energy,5423.191
17/04/2024 19:30:00,17/04/2024 20:00:00,40,NZ,New Zealand,Cleared energy,5284.253
17/04/2024 20:00:00,17/04/2024 20:30:00,41,NZ,New Zealand,Cleared energy,5126.544
17/04/2024 20:30:00,17/04/2024 21:00:00,42,NZ,New Zealand,Cleared energy,4984.255
17/04/2024 21:00:00,17/04/2024 21:30:00,43,NZ,New Zealand,Cleared energy,4900.762
17/04/2024 21:30:00,17/04/2024 22:00:00,44,NZ,New Zealand,Cleared energy,4753.075
17/04/2024 22:00:00,17/04/2024 22:30:00,45,NZ,New Zealand,Cleared energy,4503.979
17/04/2024 22:30:00,17/04/2024 23:00:00,46,NZ,New Zealand,Cleared energy,4310.346
17/04/2024 23:00:00,17/04/2024 23:30:00,47,NZ,New Zealand,Cleared energy,4182.111
17/04/2024 23:30:00,18/04/2024 00:00:00,48,NZ,New Zealand,Cleared energy,3950.117
